TimeEST,TemperatureF,Dew PointF,Humidity,Sea Level PressureIn,VisibilityMPH,Wind Direction,Wind SpeedMPH,Gust SpeedMPH,PrecipitationIn,Events,Conditions,WindDirDegrees,DateUTC
12:53 AM,77.0,71.1,82,30.10,10.0,East,6.9,-,N/A,,Partly Cloudy,90,2011-11-23 05:53:00
1:53 AM,78.1,71.1,79,30.09,10.0,ESE,6.9,16.1,N/A,,Mostly Cloudy,110,2011-11-23 06:53:00
2:53 AM,77.0,71.1,82,30.07,10.0,ESE,8.1,-,N/A,,Partly Cloudy,120,2011-11-23 07:53:00
4:06 AM,77.0,71.6,83,30.07,10.0,SE,5.8,-,N/A,,Mostly Cloudy,130,2011-11-23 09:06:00
4:53 AM,77.0,71.1,82,30.06,10.0,SE,10.4,-,N/A,,Clear,130,2011-11-23 09:53:00
5:53 AM,77.0,70.0,79,30.08,10.0,SE,6.9,-,N/A,,Clear,130,2011-11-23 10:53:00
7:53 AM,79.0,70.0,74,30.10,10.0,Variable,3.5,-,N/A,,Scattered Clouds,0,2011-11-23 12:53:00
8:53 AM,81.0,70.0,69,30.12,10.0,SE,4.6,-,N/A,,Mostly Cloudy,140,2011-11-23 13:53:00
9:53 AM,82.0,68.0,62,30.11,10.0,SSE,6.9,-,N/A,,Partly Cloudy,150,2011-11-23 14:53:00
10:53 AM,84.0,69.1,61,30.11,10.0,SSE,6.9,-,N/A,,Clear,160,2011-11-23 15:53:00
11:53 AM,82.0,68.0,62,30.09,10.0,Variable,3.5,-,N/A,,Mostly Cloudy,0,2011-11-23 16:53:00
12:53 PM,84.0,68.0,58,30.06,10.0,SSE,4.6,-,N/A,,Mostly Cloudy,160,2011-11-23 17:53:00
1:53 PM,82.0,68.0,62,30.04,10.0,SSE,5.8,-,N/A,,Mostly Cloudy,160,2011-11-23 18:53:00
2:53 PM,81.0,66.9,62,30.03,10.0,SSW,4.6,-,N/A,,Mostly Cloudy,200,2011-11-23 19:53:00
3:53 PM,80.1,66.9,64,30.03,10.0,Calm,Calm,-,N/A,,Mostly Cloudy,0,2011-11-23 20:53:00
4:53 PM,79.0,68.0,69,30.04,10.0,NW,3.5,-,N/A,,Clear,320,2011-11-23 21:53:00
5:53 PM,75.9,69.1,79,30.05,10.0,Calm,Calm,-,N/A,,Clear,0,2011-11-23 22:53:00
6:53 PM,75.9,71.1,85,30.05,10.0,WNW,3.5,-,N/A,,Clear,300,2011-11-23 23:53:00
7:53 PM,73.9,70.0,87,30.06,10.0,Calm,Calm,-,N/A,,Clear,0,2011-11-24 00:53:00
8:53 PM,73.9,70.0,87,30.06,10.0,Calm,Calm,-,N/A,,Clear,0,2011-11-24 01:53:00
10:53 PM,75.0,71.1,87,30.08,10.0,WNW,3.5,-,N/A,,Partly Cloudy,290,2011-11-24 03:53:00
11:53 PM,75.9,72.0,87,30.07,10.0,NW,4.6,-,N/A,,Partly Cloudy,310,2011-11-24 04:53:00